EDT,Max TemperatureF,Mean TemperatureF,Min TemperatureF,Max Dew PointF,MeanDew PointF,Min DewpointF,Max Humidity, Mean Humidity, Min Humidity, Max Sea Level PressureIn, Mean Sea Level PressureIn, Min Sea Level PressureIn, Max VisibilityMiles, Mean VisibilityMiles, Min VisibilityMiles, Max Wind SpeedMPH, Mean Wind SpeedMPH, Max Gust SpeedMPH,PrecipitationIn, CloudCover, Events, WindDirDegrees
2013-6-1,90,77,63,69,64,61,93,70,46,29.91,29.84,29.78,10,10,10,17,5,23,0.01,5,,177
2013-6-2,85,74,63,68,63,60,93,74,55,29.80,29.74,29.66,10,9,6,23,7,32,0.03,6,Rain,185
2013-6-3,75,66,57,65,61,54,100,82,64,29.80,29.74,29.67,10,7,0,17,7,21,0.02,6,Fog-Rain,190
2013-6-4,65,55,45,51,43,38,100,70,39,30.01,29.85,29.77,10,10,10,21,7,30,0.00,3,,298
2013-6-5,71,59,46,41,38,32,77,52,26,30.15,30.09,30.02,10,10,10,15,7,21,0.00,2,,288
2013-6-6,70,56,42,51,42,37,93,64,35,30.22,30.18,30.16,10,10,10,14,3,17,0.00,6,,182
2013-6-7,65,59,53,54,48,37,100,70,39,30.17,30.11,30.02,10,9,2,13,4,16,0.43,8,Rain,120
2013-6-8,62,57,51,55,53,51,100,89,78,30.02,29.83,29.68,10,5,1,21,9,28,1.19,8,Rain,26
2013-6-9,68,60,51,58,52,48,100,84,68,30.14,30.05,29.99,10,10,10,15,5,20,T,7,,309
2013-6-10,73,62,50,56,52,46,100,71,41,30.21,30.15,30.05,10,10,10,14,5,17,0.00,6,Fog,269
2013-6-11,57,56,54,55,54,52,100,93,86,30.04,29.81,29.56,10,5,2,15,7,21,0.95,8,Rain,92
2013-6-12,58,56,53,56,54,50,100,89,77,29.74,29.58,29.50,10,5,2,23,12,32,0.62,8,Rain,17
2013-6-13,72,62,51,52,49,44,100,72,44,29.78,29.75,29.71,10,10,8,16,7,21,0.05,6,Rain,64
2013-6-14,74,62,50,56,51,48,100,71,41,29.73,29.69,29.64,10,10,10,12,2,13,T,7,,105
2013-6-15,74,60,46,49,43,39,100,65,29,29.85,29.79,29.71,10,10,10,22,6,36,0.00,2,,294
2013-6-16,76,62,47,55,49,43,86,64,41,29.89,29.80,29.72,10,10,8,17,4,26,0.01,6,Rain,180
2013-6-17,78,66,53,59,56,53,100,74,47,29.83,29.77,29.71,10,10,5,17,5,25,0.04,4,,223
2013-6-18,69,60,50,57,48,41,96,67,37,29.96,29.91,29.83,10,10,10,15,4,18,0.00,4,,283
2013-6-19,73,61,48,50,43,37,96,63,29,30.12,29.99,29.93,10,10,10,16,5,28,0.00,1,,346
2013-6-20,76,60,44,49,46,43,93,64,35,30.24,30.19,30.14,10,10,10,17,3,23,0.00,2,,201
2013-6-21,80,66,51,55,52,46,100,67,33,30.21,30.18,30.13,10,10,10,14,3,21,0.00,4,,244
2013-6-22,74,65,55,62,58,54,100,79,57,30.19,30.16,30.10,10,10,10,12,1,15,T,7,,169
2013-6-23,78,67,56,67,62,56,100,85,69,30.13,30.05,29.94,10,9,5,12,4,31,0.01,7,,189
2013-6-24,87,76,64,70,66,62,100,78,55,29.91,29.85,29.78,10,10,6,16,4,20,0.00,6,,240
2013-6-25,90,76,61,69,65,59,100,75,50,29.82,29.75,29.68,10,9,2,17,5,23,0.62,5,Rain-Thunderstorm,205
2013-6-26,71,66,60,67,63,59,100,91,81,29.88,29.80,29.69,10,8,3,15,5,18,0.01,8,Rain,44
2013-6-27,66,62,57,59,57,55,100,89,78,29.91,29.88,29.85,10,8,2,12,7,17,0.01,8,,136
2013-6-28,65,61,56,63,59,55,100,95,90,29.88,29.69,29.59,10,4,1,20,9,25,1.44,8,Rain,101
2013-6-29,70,66,62,66,64,62,100,94,87,29.69,29.61,29.57,10,4,1,16,8,21,0.01,8,Rain,167
2013-6-30,81,72,63,69,65,63,100,85,69,29.92,29.82,29.69,10,6,1,14,7,17,0.01,8,,176